[Date Prev][Date Next][Thread Prev][Thread Next] - [Date Index][Thread Index][Author Index]
2 Line ISS Keps 5-18
- Subject: [sarex] 2 Line ISS Keps 5-18
- From: "Dave Larsen PhD" <doc@xxxxxxxxxxx>
- Date: Sat, 18 May 2002 05:26:36 -0700
ISS
1 25544U 98067A 02138.48876130 .00028687 00000-0 36003-3 0 4611
2 25544 51.6364 202.2533 0006740 90.6966 42.4406 15.59461361199399
----
Via the sarex mailing list at AMSAT.ORG courtesy of AMSAT-NA.
To unsubscribe, send "unsubscribe sarex" to Majordomo@amsat.org
AMSAT Home